Location: Bremen
(53.0793°N, 8.8017°E)
Time: 21:40:33
(UTC+02:00)

Vanguard 2 Rocket - Pass Details

Date: 22 April 2024
Orbit: 556 x 3304 km, 32.9° (Epoch: 20 May)

Event Time Altitude Azimuth Distance (km) Brightness Sun altitude
Rises 00:53:58 0° 250° (WSW) 6,713 11.2 -24.3°
Reaches altitude 10° 00:58:35 10° 244° (WSW) 5,938 10.8 -24.4°
Maximum altitude 01:15:27 39° 185° (S) 4,293 9.7 -24.6°
Drops below altitude 10° 01:31:31 10° 125° (SE) 5,663 10.6 -24.6°
Sets 01:35:48 0° 118° (ESE) 6,386 11.0 -24.6°
